Regional Weather Roundup
Issued by NWS Albany, NY

Home | Current Version | Previous Version | Text Only | Print | Product List | Glossary On
Versions: 1 2 3 4 5 6 7 8 9 10 11 12 13 14 15 16 17 18 19 20 21 22 23 24 25 26 27
000
ASUS41 KALY 211010
RWRALY

NEW YORK STATE HOURLY WEATHER ROUNDUP
NATIONAL WEATHER SERVICE ALBANY NY
600 AM EDT MON AUG 21 2017

NOTE: "FAIR" INDICATES FEW OR NO CLOUDS BELOW 12,000 FEET WITH NO
SIGNIFICANT WEATHER AND/OR NO OBSTRUCTIONS TO VISIBILITY.

NYZ032-033-038>043-046>054-057>066-NYZ062>081-082-084-211100-
EAST


CITY           SKY/WX    TMP DP  RH WIND       PRES   REMARKS
ALBANY         PTCLDY    60  57  89 CALM      30.17S
GLENS FALLS    FOG       54  53  97 CALM      30.17R VSB 1/2
POUGHKEEPSIE   CLEAR     60  58  92 CALM      30.18R
NEWBURGH       CLEAR     63  63 100 CALM      30.20R
MONTGOMERY     CLEAR     59  58  96 CALM      30.19R FOG
WHITE PLAINS   CLEAR     65  61  87 NW5       30.19R
ISLIP          PTCLDY    65  62  90 CALM      30.18R
NEW YORK CITY  PTCLDY    75  64  68 CALM      30.17R
CENTRAL PARK   CLEAR     72  63  73 CALM      30.21R
$$

NYZ005>009-017-018-044>046-055-056-211100-
CENTRAL


CITY           SKY/WX    TMP DP  RH WIND       PRES   REMARKS
FULTON         CLOUDY    60  58  92 SE3       30.14S FOG
SYRACUSE       MOCLDY    60  60 100 E5        30.14S
ROME           PTCLDY    58  58 100 SE5       30.16S
ELMIRA         CLOUDY    59  58  96 CALM      30.19S FOG
BINGHAMTON     CLEAR     59  58  96 S5        30.21S
MONTICELLO     CLEAR     58  57  97 CALM      30.24R
$$

NYZ026>034-041>043-087-211100-
NORTH


CITY           SKY/WX    TMP DP  RH WIND       PRES   REMARKS
WATERTOWN      CLOUDY    65  62  90 CALM      30.12S
FORT DRUM      NOT AVBL
OGDENSBURG     FAIR      63  62  96 S3        30.10S
MASSENA        CLOUDY    64  62  93 SW7       30.11R
SARANAC LAKE   PTCLDY    50  50 100 CALM      30.16S
PLATTSBURGH    PTCLDY    61  58  90 S5        30.10S
$$

NYZ001>004-010>016-019>021-085-211100-
WEST


CITY           SKY/WX    TMP DP  RH WIND       PRES   REMARKS
NIAGARA FALLS  CLOUDY    66  60  81 E3        30.10F
BUFFALO        MOCLDY    67  59  75 SE7       30.11F
DUNKIRK        CLOUDY    74  58  57 S16       30.11S
JAMESTOWN      TSTM      63  59  87 SE5       30.19S FOG
WELLSVILLE     MOCLDY    63  55  75 E3        30.23S
ROCHESTER      MOCLDY    62  59  90 SW8       30.13S
PENN YAN       CLOUDY    64  60  87 SW7       30.17S
$$

             KEY
       WCI = WIND CHILL INDEX
       VSB = VISIBILITY
       HX  = HEAT INDEX
$$




USA.gov is the U.S. government's official web portal to all federal, state and local government web resources and services.